Terminal Aerodrome Forecast
Issued by NWS Mt. Holly, NJ

Home | Current Version | Previous Version | Text Only | Print | Product List | Glossary On
Versions: 1 2 3 4 5 6 7 8 9 10 11 12 13 14 15 16 17
000
FTUS41 KPHI 012106 AAA
TAFACY
TAF AMD
KACY 012106Z 0121/0218 25012KT P6SM SCT050
     FM012300 24006KT P6SM SCT050
     FM020200 VRB05KT P6SM SCT050
     FM020900 04003KT 5SM BR SCT080
     FM021400 04006KT P6SM BKN070=

USA.gov is the U.S. government's official web portal to all federal, state and local government web resources and services.